Weather in Mostovoe

Ukraine / Mykolaiv District     48°03′34″N   31°34′15″E
temp.,
°C
wind,
m/s
gust,
m/s
humid.,
%
clouds,
%
prec.,
mm/h
press.,
hPa
HPBL,
m
19 may, wed
wed1900:00+10sse3798100 2.3 999198
03:00+10s4798100 3.1 999208
06:00+11s3597100 0.1 1000273
09:00+12s458396 0.1 1001638
12:00+16sw326857 0.0 1002919
15:00+15wnw9984100 1.3 1004755
18:00+12wnw81187100 0.1 1006980
21:00+12wnw71387100 0.1 1007801
20 may, thu
thu2000:00+11w61287100 0.5 1009632
03:00+11w5109090 0.5 1009326
06:00+9wnw39965 0.0 1009222
09:00+15nw3468100 0.0 1010596
12:00+17wsw2358100 0.0 10111191
15:00+18sw6561100 0.4 10111405
18:00+12sw2390100 1.5 1012133
21:00+12ne3491100 3.1 1012105
21 may, fri
fri2100:00+11ene248896 0.0 101280
03:00+12nne3488100 0.0 101295
06:00+12nne4790100 0.1 1012173
09:00+14nne4781100 0.1 1013397
12:00+17nne6769100 0.0 1013978
15:00+18nne676891 0.4 10131191
18:00+15ene5977100 0.3 1013468
21:00+14nne5117478 0.3 1014347
22 may, sat
sat2200:00+13nne61278100 0.0 1014338
03:00+12nne61283100 0.0 1014285
06:00+12nne51284100 0.0 1015292
09:00+15nne71276100 0.0 1014496
12:00+20nne675698 0.0 10151066
15:00+22nne665294 0.0 10141652
18:00+21ne4561100 0.0 10131266
21:00+16nne4679100 0.0 101382
23 may, sun
sun2300:00+15nne3492100 0.0 101260
03:00+14nne3492100 0.0 101254
06:00+14nnw3692100 0.0 1011117
09:00+19nnw457216 0.0 1011576
12:00+23n34536 0.0 10101274
15:00+24nnw444279 0.0 10091670
18:00+23nnw3451100 0.0 10091687
21:00+18n3370100 0.0 101020